Regional Weather Roundup
Issued by NWS

Home | Current Version | Previous Version | Text Only | Print | Product List | Glossary On
Versions: 1 2 3 4 5 6 7 8 9 10 11 12 13 14 15 16 17 18 19 20 21 22 23 24 25 26 27 28 29 30 31 32 33 34 35 36 37 38 39 40 41 42 43 44 45 46 47 48 49 50
000
ASUS43 KMPX 200110
RWRMN
WEATHER ROUNDUP FOR MINNESOTA
NATIONAL WEATHER SERVICE TWIN CITIES/CHANHASSEN MN
800 PM CDT SUN OCT 19 2014


NOTE: "FAIR" INDICATES FEW OR NO CLOUDS BELOW 12,000 FEET WITH NO
SIGNIFICANT WEATHER AND/OR OBSTRUCTIONS TO VISIBILITY. N/A MEANS
CURRENT SKY AND/OR WEATHER CONDITIONS ARE NOT AVAILABLE.

MNZ060>063-068>070-200200-
   Twin Cities Metro

CITY           SKY/WX    TMP DP  RH WIND       PRES   REMARKS
TWIN CITIES    CLEAR     64  44  48 W12       29.80R
ST PAUL        CLEAR     59  45  59 W9        29.80R
CRYSTAL        CLEAR     63  42  46 W10       29.79R
BLAINE         CLEAR     61  45  55 W8        29.80R
LAKEVILLE      CLEAR     61  45  55 W8        29.81R
EDEN PRAIRIE   CLEAR     62  44  51 W8        29.80R
SOUTH ST PAUL  CLEAR     63  43  48 W8        29.79R
LAKE ELMO      FAIR      54  45  71 W5        29.80R
$$
MNZ001>005-007-008-013>017-022>024-027-028-200200-
   Northwest Minnesota

CITY           SKY/WX    TMP DP  RH WIND       PRES   REMARKS
BEMIDJI        PTCLDY    49  40  72 NW8       29.85S
HALLOCK        CLEAR     55  43  62 N12       29.87R
ROSEAU         CLEAR     54  43  66 W7        29.84S
WARROAD        CLEAR     48  43  81 W3        29.85R
THIEF RVR FALL CLEAR     50  41  71 CALM      29.87R
CROOKSTON      CLEAR     48  39  71 CALM      29.88R
FOSSTON        CLEAR     46  39  76 CALM      29.88S
DETROIT LAKES  CLEAR     52  43  71 NW6       29.90R
MOORHEAD       CLEAR     54  43  66 CALM      29.90S
PARK RAPIDS    CLEAR     54  41  61 NW10      29.86R
MAHNOMEN       FAIR      50  40  68 CALM      29.88R
$$
MNZ006-009>011-018-025>026-200200-
   North Central Minnesota

CITY           SKY/WX    TMP DP  RH WIND       PRES   REMARKS
FLAG ISLAND    PTCLDY    52  43  71 N14       29.82R
INTL FALLS     PTCLDY    46  40  79 NW5       29.80R
WASKISH        CLEAR     50  43  76 CALM      29.84R
BIG FORK       CLEAR     52  43  71 CALM      29.83R
LONGVILLE      CLEAR     55  43  62 NW6       29.83R
GRAND RAPIDS   CLOUDY    55  41  58 NW8       29.81R
CRANE LAKE     PTCLDY    48  43  81 CALM      29.81R
ORR            CLEAR     48  39  71 CALM      29.78R
COOK           CLEAR     52  43  71 NW3       29.80R
WALKER         FAIR      53  42  64 W5        29.85R
$$
MNZ012-019>021-037-200200-
   Northeast Minnesota

CITY           SKY/WX    TMP DP  RH WIND       PRES   REMARKS
DULUTH         MOCLDY    57  41  55 NW9       29.76R
ELY            MOCLDY    52  43  71 NW10G20   29.76R
HIBBING        FAIR      54  41  61 NW13      29.79R
EVELETH        CLEAR     54  41  62 NW10G22   29.79R
DULUTH HARBOR  MOCLDY    57  46  67 W14       29.76R
TWO HARBORS    MOCLDY    55  34  44 NW3       29.73R
SILVER BAY     CLEAR     48  43  81 CALM      29.72S
GRAND MARAIS     N/A     46  42  86 CALM      29.73S
G MARAIS ARPRT MOCLDY    46  37  71 W5        29.73S
$$
MNZ029>031-032-039>041-046>048-054>057-064-200200-
   West Central Minnesota

CITY           SKY/WX    TMP DP  RH WIND       PRES   REMARKS
FERGUS FALLS   CLEAR     54  37  54 N7        29.90R
WHEATON        CLEAR     54  37  54 NW8       29.92R
MORRIS         CLEAR     57  39  51 N12       29.89R
ALEXANDRIA     CLEAR     58  41  53 NW10      29.89R
ELBOW LAKE     FAIR      55  40  57 N6        29.90R
WADENA         CLEAR     52  43  71 NW7       29.87R
GLENWOOD       CLEAR     55  41  58 NW8       29.89R
APPLETON       CLEAR     57  37  47 NW8       29.88R
BENSON         CLEAR     52  39  62 N8        29.88R
ORTONVILLE     CLEAR     61  37  41 NW5       29.89R
MADISON        CLEAR     63  39  42 NW8       29.89R
WILLMAR        FAIR      57  39  51 NW9       29.88R
$$
MNZ033>034-036-042>043-049>051-058-059-200200-
   Central Minnesota

CITY           SKY/WX    TMP DP  RH WIND       PRES   REMARKS
ST CLOUD       CLEAR     60  42  51 NW9       29.82R
SAUK CENTRE    FAIR      57  40  53 NW12      29.86R
PAYNESVILLE    CLEAR     54  40  60 W7        29.85R
AITKIN         PTCLDY    59  43  55 W5        29.80R
PINE RIVER     CLEAR     55  45  67 NW8       29.88R
BRAINERD       CLEAR     56  41  57 NW10      29.84R
STAPLES        CLEAR     54  41  62 NW10      29.86R
LONG PRAIRIE   FAIR      54  41  62 W10       29.87R
LITTLE FALLS   CLEAR     59  39  47 NW10      29.83R
LITCHFIELD     CLEAR     61  43  51 NW7       29.85R
BUFFALO        CLEAR     60  42  51 W5        29.82R
MAPLE LAKE     CLEAR     58  44  60 W5        29.83R
$$
MNZ037-044-045-052-053-200200-
   East Central Minnesota

CITY           SKY/WX    TMP DP  RH WIND       PRES   REMARKS
PRINCETON      CLEAR     59  43  55 W8        29.81R
MORA           CLEAR     59  41  51 NW9       29.80R
CAMBRIDGE      CLEAR     63  45  51 W7        29.78R
RUSH CITY      MOCLDY    53  44  71 W3        29.78R
MOOSE LAKE     CLEAR     55  41  58 NW7       29.77R
HINCKLEY       FAIR      57  43  58 NW6       29.78R
CLOQUET        CLEAR     55  39  54 W8        29.77R
MCGREGOR       CLEAR     55  43  62 NW7       29.80R
$$
MNZ071>073-080-081-089-090-097-098-200200-
   Southwest Minnesota

CITY           SKY/WX    TMP DP  RH WIND       PRES   REMARKS
MONTEVIDEO     CLEAR     61  39  44 N6        29.88R
GRANITE FALLS  CLEAR     59  40  48 NW8       29.89R
CANBY          CLEAR     56  40  55 NW8       29.91R
MARSHALL       CLEAR     54  36  50 W8        29.88R
REDWOOD FALLS  CLEAR     63  40  42 NW9       29.86R
OLIVIA         CLEAR     54  39  58 NW6       29.86R
PIPESTONE      CLEAR     61  37  41 NW3       29.91S
WINDOM         CLEAR     57  39  51 NW6       29.89R
WORTHINGTON    CLEAR     55  37  50 NW10      29.92R
JACKSON        CLEAR     61  37  41 NW7       29.89R
TRACY          CLEAR     60  40  47 W5        29.89R
SLAYTON        CLEAR     55  37  50 CALM      29.91R
$$
MNZ065>067-074>077-082>085-091>093-200200-
   South Central Minnesota

CITY           SKY/WX    TMP DP  RH WIND       PRES   REMARKS
MANKATO        CLEAR     63  39  42 NW10      29.84R
NEW ULM        CLEAR     55  43  62 W6        29.85R
ST JAMES       CLEAR     61  39  44 W6        29.88R
FAIRMONT       CLEAR     55  39  54 W8        29.87R
GLENCOE        CLEAR     62  45  53 W9        29.83R
FARIBAULT      CLEAR     57  45  62 W5        29.83R
OWATONNA       CLEAR     54  43  66 SW7       29.83R
WASECA         CLEAR     50  37  62 W6        29.85R
ALBERT LEA     CLEAR     59  46  63 SW7       29.84R
$$
MNZ078>079-086>088-094>096-200200-
   Southeast Minnesota

CITY           SKY/WX    TMP DP  RH WIND       PRES   REMARKS
ROCHESTER      CLEAR     56  45  66 SW9       29.83F
RED WING       CLEAR     52  45  76 CALM      29.78S
STANTON        CLEAR     53  43  68 SW3       29.79R
DODGE CENTER   PTCLDY    55  45  67 SW9       29.82S
WINONA         CLEAR     57  46  67 CALM      29.80F
AUSTIN         CLEAR     55  45  67 SW6       29.83S
PRESTON        CLEAR     57  45  64 SW9       29.84S
$$
ABBREVIATIONS USED IN REMARKS
   TC - TEMPERATURES IN CELSIUS
  WCI - WIND CHILL INDEX
   HX - HEAT INDEX
  VSB - VISIBILITY
$$


USA.gov is the U.S. government's official web portal to all federal, state and local government web resources and services.